PD0SBH-13 Weather Reports


time (UTC)temp
C
wind
direction
speed
KPH
gust
KPH
rain 1hr
cm
rain 24hr
cm
rain mn
cm
humidity
%
barometer
mb
20260502231519 16 0.0 0.0 0.00 0.00 0.00 99 1009.5
20260502230524 16 0.0 0.0 0.00 0.00 0.00 99 1009.5
20260502225520 17 0.0 0.0 0.00 0.00 0.00 99 1009.7
20260502224516 17 0.0 0.0 0.00 0.00 0.00 99 1009.7
20260502223521 17 0.0 0.0 0.00 0.00 0.00 99 1009.7
20260502222526 17 0.0 0.0 0.00 0.00 0.00 99 1009.9
20260502221521 18 0.0 0.0 0.00 0.00 0.00 99 1010.5
20260502220516 18 0.0 0.0 0.00 0.00 0.00 99 1010.6
20260502215519 18 0.0 0.0 0.00 0.00 0.00 99 1010.8
20260502214523 18 0.0 0.0 0.00 0.00 0.00 99 1010.9
20260502213519 18 0.0 0.0 0.00 0.00 0.00 99 1011.2
20260502212524 18 0.0 0.0 0.00 0.00 0.00 99 1010.9
20260502211520 18 0.0 0.0 0.00 0.00 0.00 99 1009.9
20260502210525 18 0.0 0.0 0.00 0.00 0.00 99 1009.8
20260502205519 19 0.0 0.0 0.00 0.00 0.00 99 1009.5
20260502204524 -17 0.0 0.0 0.00 0.00 0.00
20260502203519 -17 0.0 0.0 0.00 0.00 0.00
20260502202525 -17 0.0 0.0 0.00 0.00 0.00
20260502201521 -17 0.0 0.0 0.00 0.00 0.00
20260502200516 -17 0.0 0.0 0.00 0.00 0.00
20260502195521 -17 0.0 0.0 0.00 0.00 0.00
20260502194517 -17 0.0 0.0 0.00 0.00 0.00
20260502193522 22 0.0 0.0 0.00 0.00 0.00 48 1010.1
20260502192518 22 0.0 0.0 0.00 0.00 0.00 48 1010.2
20260502191522 22 0.0 0.0 0.00 0.00 0.00 49 1010.6
20260502190518 23 0.0 0.0 0.00 0.00 0.00 49 1010.6
20260502185521 23 0.0 0.0 0.00 0.00 0.00 49 1010.5
20260502184517 24 0.0 0.0 0.00 0.00 0.00 48 1010.4
20260502183522 25 0.0 0.0 0.00 0.00 0.00 42 1010.1
20260502182517 25 0.0 0.0 0.00 0.00 0.00 42 1010.1
20260502181522 25 0.0 0.0 0.00 0.00 0.00 41 1010.3
20260502180518 26 0.0 0.0 0.00 0.00 0.00 40 1010.2
20260502170520 26 0.0 0.0 0.00 0.00 0.00 39 1010.5
20260502163522 27 0.0 0.0 0.00 0.00 0.00 38 1011.1
20260502162515 27 0.0 0.0 0.00 0.00 0.00 38 1011.2
20260502161521 27 0.0 0.0 0.00 0.00 0.00 38 1011.4
20260502160525 27 0.0 0.0 0.00 0.00 0.00 38 1011.3
20260502151526 27 0.0 0.0 0.00 0.00 0.00 40 1012.1
20260502150521 27 0.0 0.0 0.00 0.00 0.00 40 1012.2
20260502130524 26 0.0 0.0 0.00 0.00 0.00 45 1013.3
20260502123526 26 0.0 0.0 0.00 0.00 0.00 45 1013.9
20260502122520 25 0.0 0.0 0.00 0.00 0.00 45 1013.7
20260502121515 26 0.0 0.0 0.00 0.00 0.00 44 1013.1
20260502120521 26 0.0 0.0 0.00 0.00 0.00 44 1013.2
20260502115517 26 0.0 0.0 0.00 0.00 0.00 45 1013.6
20260502114522 25 0.0 0.0 0.00 0.00 0.00 45 1013.7
20260502113525 25 0.0 0.0 0.00 0.00 0.00 46 1013.8
20260502112520 25 0.0 0.0 0.00 0.00 0.00 46 1013.8
20260502111523 25 0.0 0.0 0.00 0.00 0.00 46 1013.8
20260502110519 26 0.0 0.0 0.00 0.00 0.00 46 1013.9
20260502105524 25 0.0 0.0 0.00 0.00 0.00 47 1014.3
20260502104520 24 0.0 0.0 0.00 0.00 0.00 47 1014.3
20260502103524 24 0.0 0.0 0.00 0.00 0.00 48 1014.3
20260502102519 23 0.0 0.0 0.00 0.00 0.00 48 1014.3
20260502101524 23 0.0 0.0 0.00 0.00 0.00 48 1014.2
20260502100518 22 0.0 0.0 0.00 0.00 0.00 49 1014.1
20260502091521 20 0.0 0.0 0.00 0.00 0.00 49 1014.4
20260502090516 20 0.0 0.0 0.00 0.00 0.00 49 1014.3
20260502071526 16 0.0 0.0 0.00 0.00 0.00 45 1013.9
20260502070521 15 0.0 0.0 0.00 0.00 0.00 43 1014.0
20260502065524 15 0.0 0.0 0.00 0.00 0.00 43 1014.5
20260502064521 14 0.0 0.0 0.00 0.00 0.00 45 1014.4
20260502063516 14 0.0 0.0 0.00 0.00 0.00 45 1014.0
20260502062521 13 0.0 0.0 0.00 0.00 0.00 45 1014.0
20260502061516 13 0.0 0.0 0.00 0.00 0.00 46 1014.0
20260502060522 13 0.0 0.0 0.00 0.00 0.00 47 1013.9
20260502055517 13 0.0 0.0 0.00 0.00 0.00 48 1013.8
20260502054524 13 0.0 0.0 0.00 0.00 0.00 48 1013.7
20260502053519 12 0.0 0.0 0.00 0.00 0.00 47 1013.4
20260502052523 12 0.0 0.0 0.00 0.00 0.00 46 1013.5
20260502051519 12 0.0 0.0 0.00 0.00 0.00 42 1013.9
20260502050522 12 0.0 0.0 0.00 0.00 0.00 35 1013.9
20260502045517 11 0.0 0.0 0.00 0.00 0.00 27 1013.8
20260502044522 11 0.0 0.0 0.00 0.00 0.00 23 1013.7
20260502043518 10 0.0 0.0 0.00 0.00 0.00 17 1013.6
20260502042524 10 0.0 0.0 0.00 0.00 0.00 11 1013.6
20260502041519 10 0.0 0.0 0.00 0.00 0.00 11 1013.8
20260502040524 10 0.0 0.0 0.00 0.00 0.00 12 1013.9
20260502035515 10 0.0 0.0 0.00 0.00 0.00 11 1014.2
20260502034520 10 0.0 0.0 0.00 0.00 0.00 12 1014.2
20260502033515 10 0.0 0.0 0.00 0.00 0.00 17 1014.3
20260502032521 10 0.0 0.0 0.00 0.00 0.00 21 1014.3
20260502031517 10 0.0 0.0 0.00 0.00 0.00 23 1014.3
20260502030521 10 0.0 0.0 0.00 0.00 0.00 26 1014.3
20260502025515 10 0.0 0.0 0.00 0.00 0.00 29 1014.3
20260502024520 10 0.0 0.0 0.00 0.00 0.00 31 1014.4
20260502023515 10 0.0 0.0 0.00 0.00 0.00 33 1014.8
20260502022520 11 0.0 0.0 0.00 0.00 0.00 35 1014.8
20260502021515 11 0.0 0.0 0.00 0.00 0.00 36 1014.8
20260502020520 11 0.0 0.0 0.00 0.00 0.00 38 1014.8
20260502015523 11 0.0 0.0 0.00 0.00 0.00 39 1015.0
20260502014519 11 0.0 0.0 0.00 0.00 0.00 41 1015.0
20260502013524 11 0.0 0.0 0.00 0.00 0.00 42 1015.1
20260502012519 11 0.0 0.0 0.00 0.00 0.00 43 1015.2
20260502011524 11 0.0 0.0 0.00 0.00 0.00 44 1015.3
20260502010518 11 0.0 0.0 0.00 0.00 0.00 45 1015.3
20260502005521 12 0.0 0.0 0.00 0.00 0.00 47 1015.4
20260502004517 12 0.0 0.0 0.00 0.00 0.00 48 1015.5
20260502003523 12 0.0 0.0 0.00 0.00 0.00 49 1015.7
20260502002517 12 0.0 0.0 0.00 0.00 0.00 50 1015.7
20260502001520 12 0.0 0.0 0.00 0.00 0.00 51 1015.9
20260502000524 12 0.0 0.0 0.00 0.00 0.00 51 1015.9
20260501235519 13 0.0 0.0 0.00 0.00 0.00 51 1016.1
20260501234522 13 0.0 0.0 0.00 0.00 0.00 51 1016.2
20260501233516 13 0.0 0.0 0.00 0.00 0.00 51 1016.4
20260501232522 13 0.0 0.0 0.00 0.00 0.00 52 1016.4